Flag for Germany Weather past 2 weeks in Offenburg, Baden-Württemberg, Germany

30 °F

Ice fog.

Feels Like: 30 °F
Forecast: 27 / 42 °F
Wind: 2 mph from East

Location: Lahr - CAN-AFB

Current Time: Nov 27, 2015 at 9:33:42 AM

Latest Report: Nov 27, 2015 at 8:50 AM

Visibility: 0 mi

Pressure: 30.15 "Hg

Humidity: 100%

Dew point: 30 °F

Location of OffenburgLocation

Historic Weather in Offenburg — Graph


Offenburg temperature yesterday

Maximum temperature yesterday: 43 °F (at 1:20 PM)
Minimum temperature yesterday: 37 °F (at 7:50 AM)
Average temperature yesterday: 40 °F

Past Weeks' High & Low Weather Summary

High64 °F (Nov 16, 11:50 AM)100% (Nov 12, 5:50 AM)30.39 "Hg (Nov 12, 5:50 AM)
Low28 °F (Nov 24, 7:50 AM)37% (Nov 16, 12:50 PM)29.47 "Hg (Nov 21, 2:50 PM)
Average48 °F78%30.09 "Hg
* Reported Nov 11 7:50 PM — Nov 26 7:50 PM, Offenburg, Weather by CustomWeather, © 2015

Note: Actual official high and low records may vary slightly from our data, if they occured in-between our weather recording intervals... More about our weather records


Offenburg weather history for previous 24 hours

Time TempWeatherWind HumidityBarometerVisibility
7:50 PM
Thu, Nov 26
39 °FPartly cloudy.3 mph100%30.15 "Hg4 mi
7:20 PM39 °FPartly cloudy.3 mph93%30.15 "Hg4 mi
6:50 PM41 °FPartly cloudy.5 mph93%30.12 "Hg4 mi
6:20 PM41 °FPartly cloudy.2 mph93%30.12 "Hg4 mi
5:50 PM39 °FPassing clouds.2 mph100%30.12 "Hg4 mi
5:20 PM41 °FPassing clouds.3 mph93%30.09 "Hg4 mi
4:50 PM41 °FPassing clouds.6 mph93%30.09 "Hg2 mi
4:20 PM41 °FBroken clouds.3 mph93%30.07 "Hg5 mi
3:50 PM43 °FBroken clouds.3 mph87%30.07 "Hg5 mi
3:20 PM41 °FPartly sunny.2 mph93%30.07 "Hg5 mi
2:50 PM41 °FDrizzle. Partly sunny.2 mph87%30.04 "Hg5 mi
2:20 PM41 °FDrizzle. Partly sunny.3 mph87%30.04 "Hg3 mi
1:50 PM41 °FBroken clouds.3 mph93%30.04 "Hg5 mi
1:20 PM43 °FFog.2 mph87%30.04 "Hg3 mi
12:50 PM41 °FPartly sunny.2 mph93%30.04 "Hg4 mi
12:20 PM41 °FPartly sunny.1 mph93%30.04 "Hg4 mi
11:50 AM41 °FFog.1 mph93%30.04 "Hg3 mi
11:20 AM41 °FDrizzle. Partly sunny.2 mph93%30.01 "Hg3 mi
10:50 AM41 °FDrizzle. Partly sunny.1 mph100%30.01 "Hg2 mi
10:20 AM39 °FPartly sunny.2 mph100%30.01 "Hg2 mi
9:50 AM39 °FBroken clouds.2 mph100%30.01 "Hg2 mi
9:20 AM39 °FDrizzle. Partly sunny.2 mph100%29.98 "Hg2 mi
Weather by CustomWeather, © 2015

See weather overviewHow to use our weather pages